Location: Bucquoy
(50.1391°N, 2.7097°E)
Time: 02:12:10
(UTC+00:00)

Cosmos 2221 Rocket - Pass Details

Date: 06 May 2021
Orbit: 619 x 649 km, 82.5° (Epoch: 22 June)

Event Time Altitude Azimuth Distance (km) Brightness Sun altitude
Exits shadow 01:08:49 49° 167° (SSE) 842 3.8 -20.8°
Maximum altitude 01:09:59 74° 97° (E) 681 3.7 -20.8°
Drops below altitude 10° 01:14:33 10° 13° (NNE) 2,065 7.4 -20.5°
Sets 01:16:49 0° 12° (NNE) 2,980 8.5 -20.4°
